This is the latest recevied weather packets stored in our database for station/object K2ATL. If no packets are shown the sender has not sent any weather packets the latest 10 day(s).
| Time | Temp. | Humidity | Pressure | Rain* | Wind** | Luminosity | Snow |
|---|---|---|---|---|---|---|---|
| 1777989118 | 15.56° C | 55% | 1101.4 hPa | 0 mm | - | 544 W/m² | - |
| 1777988814 | 15.56° C | 57% | 1101.6 hPa | 0 mm | - | 487 W/m² | - |
| 1777988512 | 17.22° C | 54% | 1101.5 hPa | 0 mm | - | 481 W/m² | - |
| 1777988208 | 16.67° C | 51% | 1101.2 hPa | 0 mm | - | 462 W/m² | - |
| 1777987905 | 17.22° C | 49% | 1101.2 hPa | 0 mm | - | 433 W/m² | - |
| 1777987601 | 16.67° C | 52% | 1101.2 hPa | 0 mm | - | 390 W/m² | - |
| 1777987299 | 16.67° C | 53% | 1101.1 hPa | 0 mm | - | 324 W/m² | - |
| 1777986995 | 16.11° C | 53% | 1101 hPa | 0 mm | - | 321 W/m² | - |
| 1777986693 | 16.11° C | 54% | 1100.8 hPa | 0 mm | - | 295 W/m² | - |
| 1777986391 | 15.56° C | 54% | 1100.7 hPa | 0 mm | - | 299 W/m² | - |
| 1777986089 | 16.11° C | 55% | 1100.6 hPa | 0 mm | - | 205 W/m² | - |
| 1777985785 | 16.11° C | 56% | 1100.5 hPa | 0 mm | - | 198 W/m² | - |
| 1777985482 | 16.11° C | 55% | 1100.6 hPa | 0 mm | - | 219 W/m² | - |
| 1777985179 | 15.56° C | 56% | 1100.3 hPa | 0 mm | - | 199 W/m² | - |
| 1777984875 | 15.56° C | 57% | 1100.6 hPa | 0 mm | - | 223 W/m² | - |
| 1777984571 | 15° C | 58% | 1100.6 hPa | 0 mm | - | 155 W/m² | - |
| 1777984268 | 15° C | 58% | 1100.2 hPa | 0 mm | - | 164 W/m² | - |
| 1777983965 | 14.44° C | 59% | 1100.4 hPa | 0 mm | - | 138 W/m² | - |
| 1777983662 | 15° C | 59% | 1100.4 hPa | 0 mm | - | 111 W/m² | - |
| 1777983358 | 14.44° C | 59% | 1100.4 hPa | 0 mm | - | 86 W/m² | - |
| 1777983055 | 14.44° C | 59% | 1100.4 hPa | 0 mm | - | 81 W/m² | - |
| 1777982752 | 13.89° C | 59% | 1100.4 hPa | 0 mm | - | 75 W/m² | - |
| 1777982448 | 14.44° C | 59% | 1100.3 hPa | 0 mm | - | 68 W/m² | - |
| 1777982142 | 14.44° C | 60% | 1100.3 hPa | 0 mm | - | 51 W/m² | - |
| 1777981840 | 13.89° C | 59% | 1100.4 hPa | 0 mm | - | 40 W/m² | - |
* Rain latest hour (hover to see other rain measurements)
** Current wind speed in m/s (hover to see current wind gust speed)